This is the latest recevied weather packets stored in our database for station/object N4TLC. If no packets are shown the sender has not sent any weather packets the latest 10 day(s).
| Time | Temp. | Humidity | Pressure | Rain* | Wind** | Luminosity | Snow |
|---|---|---|---|---|---|---|---|
| 1777561016 | 17.22° C | 65% | 1013.2 hPa | 0 mm | - | 322 W/m² | - |
| 1777560711 | 17.22° C | 66% | 1013.2 hPa | 0 mm | - | 271 W/m² | - |
| 1777560409 | 17.22° C | 66% | 1013.3 hPa | 0 mm | - | 293 W/m² | - |
| 1777560107 | 16.67° C | 68% | 1013.3 hPa | 0 mm | - | 220 W/m² | - |
| 1777559803 | 16.11° C | 73% | 1013.4 hPa | 0 mm | - | 299 W/m² | - |
| 1777559500 | 15.56° C | 75% | 1013.4 hPa | 0 mm | - | 257 W/m² | - |
| 1777559197 | 15.56° C | 75% | 1013.3 hPa | 0 mm | - | 161 W/m² | - |
| 1777558897 | 15.56° C | 76% | 1013.1 hPa | 0 mm | - | 149 W/m² | - |
| 1777558593 | 15° C | 78% | 1013.2 hPa | 0 mm | - | 153 W/m² | - |
| 1777558288 | 15° C | 78% | 1013.1 hPa | 0 mm | - | 163 W/m² | - |
| 1777557985 | 15° C | 78% | 1013.2 hPa | 0 mm | - | 81 W/m² | - |
| 1777557682 | 15° C | 80% | 1013 hPa | 0 mm | - | 84 W/m² | - |
| 1777557379 | 15° C | 80% | 1013.5 hPa | 0 mm | - | 68 W/m² | - |
| 1777557075 | 14.44° C | 81% | 1013.3 hPa | 0 mm | - | 78 W/m² | - |
| 1777556770 | 14.44° C | 80% | 1013.6 hPa | 0 mm | - | 60 W/m² | - |
| 1777556468 | 14.44° C | 78% | 1013.9 hPa | 0 mm | - | 52 W/m² | - |
| 1777556167 | 14.44° C | 80% | 1013.7 hPa | 0 mm | - | 63 W/m² | - |
| 1777555863 | 14.44° C | 81% | 1013.7 hPa | 0 mm | - | 70 W/m² | - |
| 1777555558 | 13.89° C | 81% | 1013.8 hPa | 0 mm | - | 76 W/m² | - |
| 1777555255 | 13.89° C | 80% | 1014 hPa | 0 mm | - | 78 W/m² | - |
| 1777554952 | 13.89° C | 81% | 1013.9 hPa | 0 mm | - | 65 W/m² | - |
| 1777554649 | 13.89° C | 82% | 1013.9 hPa | 0 mm | - | 60 W/m² | - |
| 1777554345 | 13.89° C | 83% | 1013.9 hPa | 0 mm | - | 64 W/m² | - |
| 1777554043 | 13.89° C | 82% | 1014 hPa | 0 mm | - | 100 W/m² | - |
| 1777553739 | 13.89° C | 82% | 1014 hPa | 0 mm | - | 75 W/m² | - |
* Rain latest hour (hover to see other rain measurements)
** Current wind speed in m/s (hover to see current wind gust speed)